Time,TemperatureF,DewpointF,PressureIn,WindDirection,WindDirectionDegrees,WindSpeedMPH,WindSpeedGustMPH,Humidity,HourlyPrecipIn,Conditions,Clouds,dailyrainin,SoftwareType,DateUTC
2013-01-05 00:14:00,34.0,23.0,29.95,WSW,237,3.0,-999.0,65,-99.99,,,0.00,weatherlink.com 1.10,2013-01-05 05:14:00,
2013-01-05 00:28:00,33.7,23.0,29.95,SSW,209,4.0,-999.0,66,-99.99,,,0.00,weatherlink.com 1.10,2013-01-05 05:28:00,
2013-01-05 00:44:00,33.4,23.0,29.95,WSW,243,6.0,-999.0,67,-99.99,,,0.00,weatherlink.com 1.10,2013-01-05 05:44:00,
2013-01-05 00:58:00,33.5,23.0,29.96,WSW,252,6.0,-999.0,66,-99.99,,,0.00,weatherlink.com 1.10,2013-01-05 05:58:00,
2013-01-05 01:13:00,33.7,23.0,29.96,SSW,208,2.0,-999.0,66,-99.99,,,0.00,weatherlink.com 1.10,2013-01-05 06:13:00,
2013-01-05 01:28:00,33.7,23.0,29.96,WSW,240,8.0,-999.0,65,-99.99,,,0.00,weatherlink.com 1.10,2013-01-05 06:28:00,
2013-01-05 01:43:00,33.5,23.0,29.97,WSW,254,5.0,-999.0,65,-99.99,,,0.00,weatherlink.com 1.10,2013-01-05 06:43:00,
2013-01-05 01:58:00,33.7,23.0,29.98,West,269,6.0,-999.0,64,-99.99,,,0.00,weatherlink.com 1.10,2013-01-05 06:58:00,
2013-01-05 02:13:00,33.7,23.0,29.98,West,274,6.0,-999.0,64,-99.99,,,0.00,weatherlink.com 1.10,2013-01-05 07:13:00,
2013-01-05 02:28:00,33.4,23.0,29.99,SW,231,7.0,-999.0,65,-99.99,,,0.00,weatherlink.com 1.10,2013-01-05 07:28:00,
2013-01-05 02:58:00,33.0,22.0,30.00,West,268,3.0,-999.0,65,-99.99,,,0.00,weatherlink.com 1.10,2013-01-05 07:58:00,
2013-01-05 03:13:00,32.7,22.0,30.00,West,267,1.0,-999.0,66,-99.99,,,0.00,weatherlink.com 1.10,2013-01-05 08:13:00,
2013-01-05 03:28:00,32.4,22.0,30.01,West,281,6.0,-999.0,66,-99.99,,,0.00,weatherlink.com 1.10,2013-01-05 08:28:00,
2013-01-05 03:43:00,32.2,22.0,30.02,West,268,5.0,-999.0,66,-99.99,,,0.00,weatherlink.com 1.10,2013-01-05 08:43:00,
2013-01-05 03:58:00,32.5,22.0,30.02,SW,219,3.0,-999.0,65,-99.99,,,0.00,weatherlink.com 1.10,2013-01-05 08:58:00,
2013-01-05 04:13:00,32.7,22.0,30.03,NW,305,11.0,-999.0,64,-99.99,,,0.00,weatherlink.com 1.10,2013-01-05 09:13:00,
2013-01-05 04:28:00,32.7,22.0,30.04,West,273,4.0,-999.0,64,-99.99,,,0.00,weatherlink.com 1.10,2013-01-05 09:28:00,
2013-01-05 04:43:00,32.6,22.0,30.05,WNW,285,4.0,-999.0,64,-99.99,,,0.00,weatherlink.com 1.10,2013-01-05 09:43:00,
2013-01-05 04:58:00,32.4,22.0,30.06,West,269,3.0,-999.0,65,-99.99,,,0.00,weatherlink.com 1.10,2013-01-05 09:58:00,
2013-01-05 05:13:00,32.3,22.0,30.07,West,279,11.0,-999.0,65,-99.99,,,0.00,weatherlink.com 1.10,2013-01-05 10:13:00,
2013-01-05 05:28:00,32.3,22.0,30.08,WNW,286,5.0,-999.0,65,-99.99,,,0.00,weatherlink.com 1.10,2013-01-05 10:28:00,
2013-01-05 05:44:00,32.2,22.0,30.08,West,265,3.0,-999.0,65,-99.99,,,0.00,weatherlink.com 1.10,2013-01-05 10:44:00,
2013-01-05 05:59:00,32.0,21.0,30.09,WSW,254,1.0,-999.0,65,-99.99,,,0.00,weatherlink.com 1.10,2013-01-05 10:59:00,
2013-01-05 06:14:00,32.0,21.0,30.10,West,265,5.0,-999.0,65,-99.99,,,0.00,weatherlink.com 1.10,2013-01-05 11:14:00,
2013-01-05 06:29:00,31.9,21.0,30.11,West,277,4.0,-999.0,65,-99.99,,,0.00,weatherlink.com 1.10,2013-01-05 11:29:00,
2013-01-05 06:44:00,31.9,22.0,30.11,WNW,282,4.0,-999.0,66,-99.99,,,0.00,weatherlink.com 1.10,2013-01-05 11:44:00,
2013-01-05 06:59:00,31.6,21.0,30.11,West,259,4.0,-999.0,66,-99.99,,,0.00,weatherlink.com 1.10,2013-01-05 11:59:00,
2013-01-05 07:14:00,31.4,22.0,30.13,WSW,254,4.0,-999.0,67,-99.99,,,0.00,weatherlink.com 1.10,2013-01-05 12:14:00,
2013-01-05 07:29:00,31.3,22.0,30.13,SSW,205,4.0,-999.0,68,-99.99,,,0.00,weatherlink.com 1.10,2013-01-05 12:29:00,
2013-01-05 07:44:00,31.4,22.0,30.14,SW,220,4.0,-999.0,68,-99.99,,,0.00,weatherlink.com 1.10,2013-01-05 12:44:00,
2013-01-05 07:59:00,31.6,22.0,30.15,SW,226,7.0,-999.0,68,-99.99,,,0.00,weatherlink.com 1.10,2013-01-05 12:59:00,
2013-01-05 08:14:00,32.0,22.0,30.16,SW,217,7.0,-999.0,67,-99.99,,,0.00,weatherlink.com 1.10,2013-01-05 13:14:00,
2013-01-05 08:29:00,32.5,23.0,30.17,SSW,210,4.0,-999.0,67,-99.99,,,0.00,weatherlink.com 1.10,2013-01-05 13:29:00,
2013-01-05 08:44:00,32.8,23.0,30.17,WSW,247,4.0,-999.0,66,-99.99,,,0.00,weatherlink.com 1.10,2013-01-05 13:44:00,
2013-01-05 08:59:00,33.5,23.0,30.18,WNW,286,9.0,-999.0,66,-99.99,,,0.00,weatherlink.com 1.10,2013-01-05 13:59:00,
2013-01-05 09:14:00,34.2,23.0,30.18,WNW,288,7.0,-999.0,65,-99.99,,,0.00,weatherlink.com 1.10,2013-01-05 14:14:00,
2013-01-05 09:29:00,34.9,23.0,30.18,West,278,8.0,-999.0,63,-99.99,,,0.00,weatherlink.com 1.10,2013-01-05 14:29:00,
2013-01-05 09:44:00,35.4,24.0,30.18,WNW,290,5.0,-999.0,63,-99.99,,,0.00,weatherlink.com 1.10,2013-01-05 14:44:00,
2013-01-05 09:59:00,35.9,24.0,30.19,West,261,5.0,-999.0,62,-99.99,,,0.00,weatherlink.com 1.10,2013-01-05 14:59:00,
2013-01-05 10:14:00,36.6,24.0,30.19,West,280,5.0,-999.0,61,-99.99,,,0.00,weatherlink.com 1.10,2013-01-05 15:14:00,
2013-01-05 10:29:00,36.9,24.0,30.19,WNW,288,5.0,-999.0,61,-99.99,,,0.00,weatherlink.com 1.10,2013-01-05 15:29:00,
2013-01-05 10:44:00,37.4,24.0,30.20,West,270,4.0,-999.0,60,-99.99,,,0.00,weatherlink.com 1.10,2013-01-05 15:44:00,
2013-01-05 10:59:00,38.2,25.0,30.20,SW,235,7.0,-999.0,59,-99.99,,,0.00,weatherlink.com 1.10,2013-01-05 15:59:00,
2013-01-05 11:14:00,39.0,25.0,30.21,West,263,4.0,-999.0,58,-99.99,,,0.00,weatherlink.com 1.10,2013-01-05 16:14:00,
2013-01-05 11:29:00,39.6,25.0,30.20,WNW,287,13.0,-999.0,57,-99.99,,,0.00,weatherlink.com 1.10,2013-01-05 16:29:00,
2013-01-05 11:44:00,40.0,25.0,30.18,West,275,7.0,-999.0,56,-99.99,,,0.00,weatherlink.com 1.10,2013-01-05 16:44:00,
2013-01-05 11:59:00,40.6,25.0,30.16,West,262,7.0,-999.0,55,-99.99,,,0.00,weatherlink.com 1.10,2013-01-05 16:59:00,
2013-01-05 12:14:00,40.8,26.0,30.16,West,259,10.0,-999.0,55,-99.99,,,0.00,weatherlink.com 1.10,2013-01-05 17:14:00,
2013-01-05 12:29:00,40.9,26.0,30.16,SW,228,8.0,-999.0,55,-99.99,,,0.00,weatherlink.com 1.10,2013-01-05 17:29:00,
2013-01-05 12:44:00,41.4,25.0,30.16,WNW,284,11.0,-999.0,53,-99.99,,,0.00,weatherlink.com 1.10,2013-01-05 17:44:00,
2013-01-05 12:59:00,41.8,25.0,30.16,WNW,286,14.0,-999.0,52,-99.99,,,0.00,weatherlink.com 1.10,2013-01-05 17:59:00,
2013-01-05 13:14:00,41.8,25.0,30.15,West,266,5.0,-999.0,52,-99.99,,,0.00,weatherlink.com 1.10,2013-01-05 18:14:00,
2013-01-05 13:29:00,41.9,25.0,30.15,West,279,7.0,-999.0,52,-99.99,,,0.00,weatherlink.com 1.10,2013-01-05 18:29:00,
2013-01-05 13:44:00,42.0,25.0,30.14,West,279,9.0,-999.0,51,-99.99,,,0.00,weatherlink.com 1.10,2013-01-05 18:44:00,
2013-01-05 13:59:00,42.5,25.0,30.14,NW,325,5.0,-999.0,51,-99.99,,,0.00,weatherlink.com 1.10,2013-01-05 18:59:00,
2013-01-05 14:14:00,42.7,26.0,30.14,North,350,4.0,-999.0,51,-99.99,,,0.00,weatherlink.com 1.10,2013-01-05 19:14:00,
2013-01-05 14:29:00,42.7,26.0,30.14,SW,233,3.0,-999.0,51,-99.99,,,0.00,weatherlink.com 1.10,2013-01-05 19:29:00,
2013-01-05 14:44:00,42.6,26.0,30.15,WNW,288,4.0,-999.0,52,-99.99,,,0.00,weatherlink.com 1.10,2013-01-05 19:44:00,
2013-01-05 14:59:00,42.6,25.0,30.15,SW,230,8.0,-999.0,51,-99.99,,,0.00,weatherlink.com 1.10,2013-01-05 19:59:00,
2013-01-05 15:14:00,43.0,25.0,30.15,WNW,286,1.0,-999.0,50,-99.99,,,0.00,weatherlink.com 1.10,2013-01-05 20:14:00,
2013-01-05 15:29:00,43.0,26.0,30.15,SSW,213,4.0,-999.0,51,-99.99,,,0.00,weatherlink.com 1.10,2013-01-05 20:29:00,
2013-01-05 15:44:00,42.6,25.0,30.16,SW,228,6.0,-999.0,51,-99.99,,,0.00,weatherlink.com 1.10,2013-01-05 20:44:00,
2013-01-05 15:59:00,41.9,26.0,30.16,SSW,198,1.0,-999.0,53,-99.99,,,0.00,weatherlink.com 1.10,2013-01-05 20:59:00,
2013-01-05 16:14:00,41.2,26.0,30.15,SSW,213,3.0,-999.0,54,-99.99,,,0.00,weatherlink.com 1.10,2013-01-05 21:14:00,
2013-01-05 16:29:00,40.4,25.0,30.16,SW,226,2.0,-999.0,55,-99.99,,,0.00,weatherlink.com 1.10,2013-01-05 21:29:00,
2013-01-05 16:44:00,39.7,25.0,30.15,SSW,192,0.0,-999.0,56,-99.99,,,0.00,weatherlink.com 1.10,2013-01-05 21:44:00,
2013-01-05 16:59:00,38.8,25.0,30.16,SW,226,0.0,-999.0,58,-99.99,,,0.00,weatherlink.com 1.10,2013-01-05 21:59:00,
2013-01-05 17:14:00,37.9,25.0,30.16,SW,226,2.0,-999.0,59,-99.99,,,0.00,weatherlink.com 1.10,2013-01-05 22:14:00,
2013-01-05 17:29:00,37.3,25.0,30.17,SW,226,0.0,-999.0,61,-99.99,,,0.00,weatherlink.com 1.10,2013-01-05 22:29:00,
2013-01-05 17:44:00,36.7,25.0,30.18,SW,226,0.0,-999.0,62,-99.99,,,0.00,weatherlink.com 1.10,2013-01-05 22:44:00,
2013-01-05 17:59:00,36.1,24.0,30.18,SW,226,0.0,-999.0,63,-99.99,,,0.00,weatherlink.com 1.10,2013-01-05 22:59:00,
2013-01-05 18:14:00,35.5,24.0,30.18,SW,226,2.0,-999.0,64,-99.99,,,0.00,weatherlink.com 1.10,2013-01-05 23:14:00,
2013-01-05 18:29:00,35.0,25.0,30.17,SW,226,2.0,-999.0,66,-99.99,,,0.00,weatherlink.com 1.10,2013-01-05 23:29:00,
2013-01-05 18:44:00,33.7,25.0,30.18,SW,226,0.0,-999.0,69,-99.99,,,0.00,weatherlink.com 1.10,2013-01-05 23:44:00,
2013-01-05 18:59:00,33.6,26.0,30.19,SW,226,0.0,-999.0,75,-99.99,,,0.00,weatherlink.com 1.10,2013-01-05 23:59:00,
2013-01-05 19:14:00,33.0,24.0,30.19,SW,226,2.0,-999.0,70,-99.99,,,0.00,weatherlink.com 1.10,2013-01-06 00:14:00,
2013-01-05 19:29:00,32.7,25.0,30.18,SW,226,1.0,-999.0,72,-99.99,,,0.00,weatherlink.com 1.10,2013-01-06 00:29:00,
2013-01-05 19:44:00,31.9,24.0,30.18,SW,226,0.0,-999.0,73,-99.99,,,0.00,weatherlink.com 1.10,2013-01-06 00:44:00,
2013-01-05 19:59:00,31.5,24.0,30.17,SW,226,0.0,-999.0,74,-99.99,,,0.00,weatherlink.com 1.10,2013-01-06 00:59:00,
2013-01-05 20:14:00,31.1,24.0,30.16,SW,226,0.0,-999.0,76,-99.99,,,0.00,weatherlink.com 1.10,2013-01-06 01:14:00,
2013-01-05 20:29:00,30.7,24.0,30.14,SW,226,0.0,-999.0,77,-99.99,,,0.00,weatherlink.com 1.10,2013-01-06 01:29:00,
2013-01-05 20:44:00,30.6,24.0,30.15,SW,226,2.0,-999.0,77,-99.99,,,0.00,weatherlink.com 1.10,2013-01-06 01:44:00,
2013-01-05 20:59:00,31.4,25.0,30.16,SW,226,4.0,-999.0,76,-99.99,,,0.00,weatherlink.com 1.10,2013-01-06 01:59:00,
2013-01-05 21:14:00,31.9,25.0,30.17,SW,231,4.0,-999.0,75,-99.99,,,0.00,weatherlink.com 1.10,2013-01-06 02:14:00,
2013-01-05 21:29:00,32.1,25.0,30.17,SSW,209,2.0,-999.0,74,-99.99,,,0.00,weatherlink.com 1.10,2013-01-06 02:29:00,
2013-01-05 21:44:00,32.2,25.0,30.18,WSW,238,2.0,-999.0,74,-99.99,,,0.00,weatherlink.com 1.10,2013-01-06 02:44:00,
2013-01-05 21:59:00,32.2,25.0,30.14,WSW,238,0.0,-999.0,74,-99.99,,,0.00,weatherlink.com 1.10,2013-01-06 02:59:00,
2013-01-05 22:14:00,32.0,25.0,30.14,WSW,238,0.0,-999.0,75,-99.99,,,0.00,weatherlink.com 1.10,2013-01-06 03:14:00,
2013-01-05 22:29:00,32.0,25.0,30.14,WSW,238,2.0,-999.0,75,-99.99,,,0.00,weatherlink.com 1.10,2013-01-06 03:29:00,
2013-01-05 22:44:00,32.1,25.0,30.14,WSW,238,0.0,-999.0,75,-99.99,,,0.00,weatherlink.com 1.10,2013-01-06 03:44:00,
2013-01-05 22:59:00,32.2,25.0,30.14,WSW,238,0.0,-999.0,75,-99.99,,,0.00,weatherlink.com 1.10,2013-01-06 03:59:00,
2013-01-05 23:14:00,32.2,25.0,30.13,WSW,238,0.0,-999.0,76,-99.99,,,0.00,weatherlink.com 1.10,2013-01-06 04:14:00,
2013-01-05 23:29:00,35.0,30.0,30.12,WSW,238,0.0,-999.0,83,-99.99,,,0.00,weatherlink.com 1.10,2013-01-06 04:29:00,
2013-01-05 23:44:00,34.4,28.0,30.11,WSW,238,0.0,-999.0,77,-99.99,,,0.00,weatherlink.com 1.10,2013-01-06 04:44:00,
2013-01-05 23:59:00,33.0,26.0,30.13,South,185,2.0,-999.0,76,-99.99,,,0.00,weatherlink.com 1.10,2013-01-06 04:59:00,